星链-3580 (STARLINK-3580 )

导读

STARLINK-3580是美国SpaceX公司星链星座的一员,于2022年2月25日发射入轨。作为低地球轨道卫星,它是星链全球卫星互联网组网的组成部分,依托星链星座的规模化部署,为全球偏远、欠发达地区提供高速低延迟宽带互联网接入服务,助力实现网络覆盖无死角,支撑远程通信、应急联网等多元场景需求,推动全球互联基础设施建设。

Basic Information
目录编号:
51781
目录名称:
STARLINK-3580
国际标识:
2022-017P
轨道中心:
EARTH
卫星名称:
星链-3580
卫星全名:
星链-3580 (STARLINK-3580 )
卫星状态:
在轨 (已飞行1652 天)
发射日期:
2022-02-25 UTC
国别 :
美国 (US)
星等 :
--
Orbit Information
数据来源 国际轨道数据
星历时间: 2026-09-03T17:36:43+0800
20小时前
查看轨道信息
半长轴: 6837.872km
偏心率: 0.0001117
轨道倾角: 53.158°
近地点辐角 79.768°
升交点赤经 251.974°
平近点角 280.345°
近地点: 458.971km
远地点: 460.499km
周期: 93.787分钟
每日圈数: 15.353995
Detailed Information
固有亮度:
5
最大亮度:
2.5
卫星平台:
Starlink v1.5
覆盖范围:
全球
运营商:
太空探索技术公司
运营商所在国:
美国
制造商(研发单位):
太空探索技术公司
制造商所在国:
美国
使用方式:
暂无
Satellite Introduction
星链(Starlink)计划是由太空探索技术公司(SpaceX)提出的一个巨型低轨卫星互联网星座项目,计划在2019年至2024年间在太空搭建由约1.2万颗卫星组成的“星链”网络,其中1584颗将部署在地球上空550千米处的近地轨道,并从2020年开始工作。该卫星仍在工作。
2D Orbit Map
3D Orbit Map
Orbit Altitude Analysis Chart
Orbit Inclination Analysis Chart
Orbit Comprehensive Analysis Chart
View Comprehensive Chart
Conjunction Data List
Event ID Objects TCA Miss Dist (km) Collision Risk Probability Collision Risk Index (CRI) Action
CDM_260903-141005-178106-662624
2026-09-03T
14:10:01+0000
2.387 km
极远距离
1.649925E-6 低风险 0.39
CDM_260904-234805-178106-982622
2026-09-04T
23:48:49+0000
2.895 km
极远距离
1.243621E-6 低风险 0.37
CDM_260904-230205-178106-994422
2026-09-04T
23:02:20+0000
2.964 km
极远距离
1.209591E-6 低风险 0.37
CDM_260903-143005-178106-607922
2026-09-03T
14:30:23+0000
2.931 km
极远距离
1.112813E-6 低风险 0.36